Vorticity
nan nan nan nan nan nan nan nan nan nan nan nan nan nan nan nan nan nan nan nan nan nan nan nan nan nan nan
nan 8 8 8 8 8 8 9 8 5 6 9 9 6 6 7 8 10 9 8 9 10 10 8 8 9 nan
nan 9 8 8 9 10 9 9 9 9 12 11 4 3 5 8 10 9 9 9 10 8 7 11 12 11 nan
nan 9 9 11 9 8 9 9 9 14 11 8 9 10 11 12 11 11 7 7 9 11 12 13 11 9 nan
nan 10 8 9 10 10 9 9 11 11 8 9 12 14 12 12 10 5 5 10 12 12 10 10 9 7 nan
nan 10 9 9 8 9 10 10 12 6 7 13 12 9 11 8 3 6 11 14 11 8 8 9 9 7 nan
nan 10 10 9 9 10 10 10 8 7 12 11 10 8 8 5 6 16 14 8 5 8 10 8 6 8 nan
nan 11 10 11 12 10 10 10 12 11 12 10 8 8 9 8 14 13 4 6 7 8 10 8 7 11 nan
nan 8 7 9 10 11 11 11 12 9 10 12 9 12 12 11 15 1 5 8 7 9 9 10 11 18 nan
nan 6 7 6 7 11 11 11 10 9 6 9 9 10 13 11 8 11 9 7 9 10 13 13 16 15 nan
nan 9 10 7 8 9 10 10 9 8 5 11 9 10 9 7 9 11 7 10 13 10 10 11 11 11 nan
nan 10 9 10 9 8 10 10 10 9 8 10 10 8 8 9 8 5 8 11 10 13 10 8 12 13 nan
nan 11 10 9 10 11 11 12 11 11 12 10 8 8 10 10 8 4 9 13 12 10 9 11 12 14 nan
nan 10 10 9 9 11 10 11 11 14 14 11 10 7 7 9 7 9 12 10 10 8 9 9 10 11 nan
nan 8 8 10 10 9 9 10 9 10 10 10 10 10 12 11 9 12 11 9 8 8 9 11 11 11 nan
nan 10 10 10 9 9 9 8 10 11 8 7 10 12 15 17 14 8 12 8 7 9 12 11 10 10 nan
nan nan nan nan nan nan nan nan nan nan nan nan nan nan nan nan nan nan nan nan nan nan nan nan nan nan nan
CAPE
4 1 0 0 0 0 0 0 0 0 0 0 0 1 0 0 0 0 0 0 1 2 3 2 2 5 6
1 3 0 0 0 0 0 0 0 0 0 0 0 0 0 0 0 0 0 1 2 3 3 5 9 9 8
1 1 0 0 0 0 0 0 0 0 0 0 0 0 0 0 0 0 2 2 3 5 7 7 9 10 12
0 0 0 0 0 0 0 0 0 0 0 0 0 0 0 0 0 0 0 2 3 4 4 8 18 16 7
0 0 0 0 0 0 0 0 0 0 0 0 0 0 0 0 0 0 0 2 2 4 17 12 10 9 10
0 0 0 0 0 0 0 0 0 0 0 0 0 0 0 0 0 0 2 4 10 3 0 4 4 5 5
0 0 0 0 0 0 0 0 0 0 0 0 0 0 0 0 0 1 3 16 2 1 2 3 6 7 8
0 0 0 0 0 0 0 0 0 0 0 0 0 0 0 0 0 0 7 3 1 4 5 7 8 7 4
0 0 0 0 0 0 0 0 0 0 0 1 0 0 0 0 0 1 0 1 2 3 6 8 5 4 1
0 0 0 0 0 0 0 0 1 0 0 0 0 1 0 0 0 0 0 1 7 8 6 4 3 1 0
0 0 0 0 0 0 0 0 0 0 0 2 1 1 6 2 0 0 0 0 0 1 7 5 4 3 0
0 0 0 0 0 0 0 0 0 0 0 0 1 2 1 1 0 0 0 0 1 0 0 1 4 8 9
0 0 0 0 0 0 0 0 0 0 0 0 0 0 2 1 1 0 3 0 0 0 0 0 0 0 0
0 0 0 0 1 0 0 0 0 0 0 0 0 0 0 1 1 0 0 0 0 0 0 0 0 0 0
1 2 1 5 0 0 0 0 0 0 0 2 3 1 1 1 1 0 0 1 0 0 0 0 0 0 0
0 0 1 1 0 3 0 0 0 0 0 0 0 0 0 0 0 0 0 2 1 1 0 1 0 0 0
0 0 0 1 0 0 0 0 1 1 1 0 0 0 0 0 0 0 0 0 0 1 0 0 0 0 0